DW3383 Weather Reports


Display with metric or nautical units.
time (UTC)temp
F
wind
direction
speed
MPH
gust
MPH
rain 1hr
in
rain 24hr
in
rain mn
in
humidity
%
barometer
mb
20260905110805 39 269 3.0 5.0 0.00 0.00 0.00 98 1017.2
20260905110305 39 272 4.0 6.0 0.00 0.00 0.00 98 1017.3
20260905100805 41 277 4.0 5.0 0.00 0.00 0.00 97 1017.1
20260905100305 41 278 5.0 7.0 0.00 0.00 0.00 98 1017.1
20260905090805 41 240 5.0 7.0 0.00 0.00 0.00 95 1017.1
20260905090304 41 219 6.0 8.0 0.00 0.00 0.00 95 1017.0
20260905080805 43 279 4.0 7.0 0.00 0.00 0.00 92 1017.1
20260905080305 43 273 6.0 7.0 0.00 0.00 0.00 92 1017.1
20260905070812 45 274 3.0 5.0 0.00 0.00 0.00 89 1016.9
20260905070304 46 265 3.0 5.0 0.00 0.00 0.00 88 1016.8
20260905060804 49 351 2.0 5.0 0.00 0.00 0.00 84 1016.7
20260905060305 49 11 2.0 5.0 0.00 0.00 0.00 83 1016.7
20260905050805 53 273 2.0 3.0 0.00 0.00 0.00 76 1016.6
20260905050304 53 274 1.0 3.0 0.00 0.00 0.00 76 1016.6
20260905040804 59 43 0.0 1.0 0.00 0.00 0.00 61 1016.3
20260905040306 60 35 0.0 2.0 0.00 0.00 0.00 63 1016.3
20260905030805 66 57 1.0 2.0 0.00 0.00 0.00 51 1016.0
20260905030304 66 46 1.0 2.0 0.00 0.00 0.00 50 1016.0
20260905020805 70 60 1.0 2.0 0.00 0.00 0.00 44 1015.9
20260905000805 72 38 2.0 3.0 0.00 0.00 0.00 40 1016.5
20260905000304 72 6 2.0 5.0 0.00 0.00 0.00 40 1016.6
20260904230805 68 51 1.0 3.0 0.00 0.00 0.00 44 1017.2
20260904230304 68 53 2.0 3.0 0.00 0.00 0.00 44 1017.3
20260904220805 65 61 1.0 2.0 0.00 0.00 0.00 43 1017.7
20260904220306 65 56 1.0 6.0 0.00 0.00 0.00 44 1017.8
20260904200805 59 88 1.0 2.0 0.00 0.00 0.00 55 1019.0
20260904190804 56 339 0.0 3.0 0.00 0.00 0.00 58 1019.5
20260904190305 56 45 1.0 5.0 0.00 0.00 0.00 57 1019.5
20260904180804 49 65 2.0 6.0 0.00 0.00 0.00 72 1019.9
20260904180305 48 276 5.0 8.0 0.00 0.00 0.00 75 1020.0
20260904170804 43 320 2.0 5.0 0.00 0.00 0.00 82 1020.4
20260904170305 43 281 3.0 8.0 0.00 0.00 0.00 84 1020.5
20260904160804 38 279 3.0 3.0 0.00 0.00 0.00 98 1020.5
20260904160304 38 275 3.0 6.0 0.00 0.00 0.00 99 1020.5
20260904150804 35 264 3.0 5.0 0.00 0.00 0.00 99 1020.6
20260904150304 35 210 3.0 6.0 0.00 0.00 0.00 99 1020.6
20260904140804 35 217 3.0 5.0 0.00 0.00 0.00 98 1020.8
20260904140305 35 278 2.0 6.0 0.00 0.00 0.00 98 1020.8
20260904130305 36 279 5.0 5.0 0.00 0.00 0.00 98 1020.9
20260904120805 34 127 2.0 5.0 0.00 0.00 0.00 98 1020.8
20260904120306 34 257 3.0 5.0 0.00 0.00 0.00 98 1020.7